Terminal Aerodrome Forecast
Issued by NWS

Home | Current Version | Previous Version | Text Only | Print | Product List | Glossary Off
Versions: 1 2 3 4 5 6 7 8 9 10 11 12 13 14 15 16 17 18 19

000
FTUS43 KFGF 190500
TAFBJI
TAF
KBJI 190521Z 1906/2006 16007KT P6SM OVC010
     FM191200 15006KT P6SM OVC007=

USA.gov is the U.S. government's official web portal to all federal, state and local government web resources and services.